Weather History for Morristown, NJ

Change the Weather History Date:

Friday, February 22, 2013

  Actual Average Record
Temperature  
Mean Temperature 28 °F -  
Max Temperature 37 °F 45 °F 73 °F (1953)
Min Temperature 19 °F 23 °F -2 °F (1946)
Degree Days  
Heating Degree Days 37    
Moisture  
Dew Point 20 °F    
Average Humidity 68    
Maximum Humidity 93    
Minimum Humidity 52    
Precipitation  
Precipitation 0.00 in - - ()
Sea Level Pressure  
Sea Level Pressure 30.32 in    
Wind  
Wind Speed 4 mph (NNE)    
Max Wind Speed 8 mph    
Max Gust Speed -    
Visibility 10 miles    
Events      
Averages and records for this station are not official NWS values.
T = Trace of Precipitation, MM = Missing Value Source: NWS Daily Summary

Daily Weather History Graph

Daily Weather History Graph

Search for Another Location

Airport:

Trip Planner

Search our weather history database for the weather conditions in past years. The results will help you decide how hot, cold, wet, or windy it might be!

Date:

Astronomy

Feb. 22, 2013 Rise Set
Actual Time 6:41 AM EST 5:41 PM EST
Civil Twilight 6:14 AM EST 6:08 PM EST
Nautical Twilight 5:42 AM EST 6:40 PM EST
Astronomical Twilight 5:10 AM EST 7:12 PM EST
Moon 2:49 PM EST (2/22) 4:26 AM EST (2/22)
Length of Visible Light 11h 54m
Length of Day
10h 59m
Waxing Gibbous, 90% of the Moon is Illuminated
Feb 22
Waxing Gibbous
Feb 25
Full
Mar 4
Last Quarter
Mar 11
New
Mar 19
First Quarter

Hourly Weather History & Observations

Time (EST) Temp. Windchill Dew Point Humidity Pressure Visibility Wind Dir Wind Speed Gust Speed Precip Events Conditions
12:15 AM 26.6 °F 20.0 °F 14.0 °F 59% 30.28 in 10.0 mi North 5.8 mph - N/A   Clear
12:35 AM 26.6 °F 20.0 °F 14.0 °F 59% 30.28 in 10.0 mi North 5.8 mph - N/A   Clear
12:55 AM 26.6 °F - 14.0 °F 59% 30.30 in 10.0 mi Calm Calm - N/A   Clear
1:15 AM 26.6 °F 22.6 °F 14.0 °F 59% 30.30 in 10.0 mi NNW 3.5 mph - N/A   Clear
1:35 AM 26.6 °F 21.2 °F 14.0 °F 59% 30.29 in 10.0 mi NNE 4.6 mph - N/A   Clear
1:55 AM 26.6 °F 20.0 °F 15.8 °F 64% 30.29 in 10.0 mi North 5.8 mph - N/A   Clear
2:15 AM 26.6 °F 21.2 °F 14.0 °F 59% 30.31 in 10.0 mi WNW 4.6 mph - N/A   Clear
2:35 AM 26.6 °F 21.2 °F 14.0 °F 59% 30.32 in 10.0 mi NNW 4.6 mph - N/A   Clear
2:55 AM 26.6 °F 19.1 °F 14.0 °F 59% 30.32 in 10.0 mi NNW 6.9 mph - N/A   Clear
3:15 AM 26.6 °F 18.2 °F 14.0 °F 59% 30.31 in 10.0 mi NNW 8.1 mph - N/A   Clear
3:35 AM 26.6 °F 20.0 °F 15.8 °F 64% 30.31 in 10.0 mi North 5.8 mph - N/A   Clear
3:55 AM 24.8 °F 20.5 °F 15.8 °F 69% 30.32 in 10.0 mi NNW 3.5 mph - N/A   Clear
4:15 AM 24.8 °F - 15.8 °F 69% 30.33 in 10.0 mi Calm Calm - N/A   Clear
4:35 AM 23.0 °F - 15.8 °F 74% 30.34 in 10.0 mi Calm Calm - N/A   Clear
4:55 AM 21.2 °F - 15.8 °F 80% 30.34 in 10.0 mi Calm Calm - N/A   Clear
5:15 AM 23.0 °F - 17.6 °F 80% 30.33 in 10.0 mi Calm Calm - N/A   Clear
5:35 AM 23.0 °F - 15.8 °F 74% 30.35 in 10.0 mi Calm Calm - N/A   Clear
6:45 AM 19.4 °F - 17.6 °F 93% 30.39 in 10.0 mi Calm Calm - N/A   Scattered Clouds
7:45 AM 23.0 °F - 19.4 °F 86% 30.41 in 10.0 mi Calm Calm - N/A   Overcast
8:45 AM 26.6 °F 20.0 °F 19.4 °F 74% 30.40 in 10.0 mi NE 5.8 mph - N/A   Mostly Cloudy
9:45 AM 28.4 °F 22.2 °F 19.4 °F 69% 30.40 in 10.0 mi East 5.8 mph - N/A   Mostly Cloudy
10:45 AM 30.2 °F 24.3 °F 19.4 °F 64% 30.39 in 10.0 mi East 5.8 mph - N/A   Mostly Cloudy
11:45 AM 33.8 °F 28.6 °F 19.4 °F 56% 30.39 in 10.0 mi SE 5.8 mph - N/A   Mostly Cloudy
12:45 PM 35.6 °F 29.2 °F 19.4 °F 52% 30.36 in 10.0 mi SE 8.1 mph - N/A   Overcast
1:45 PM 35.6 °F 30.7 °F 19.4 °F 52% 30.33 in 10.0 mi East 5.8 mph - N/A   Mostly Cloudy
2:45 PM 37.4 °F 31.4 °F 21.2 °F 52% 30.30 in 10.0 mi East 8.1 mph - N/A   Overcast
3:45 PM 37.4 °F 32.8 °F 21.2 °F 52% 30.31 in 10.0 mi South 5.8 mph - N/A   Overcast
4:45 PM 35.6 °F 29.9 °F 23.0 °F 60% 30.31 in 10.0 mi South 6.9 mph - N/A   Overcast
5:45 PM 33.8 °F 27.0 °F 26.6 °F 75% 30.32 in 10.0 mi SSE 8.1 mph - N/A   Overcast
6:45 PM 33.8 °F - 26.6 °F 75% 30.32 in 10.0 mi Calm Calm - N/A   Overcast
7:45 PM 33.8 °F - 26.6 °F 75% 30.32 in 10.0 mi Calm Calm - N/A   Overcast
8:45 PM 33.8 °F - 26.6 °F 75% 30.31 in 10.0 mi Calm Calm - N/A   Overcast
9:47 PM 33.8 °F - 26.6 °F 75% 30.29 in 7.0 mi Calm Calm - N/A   Overcast
9:55 PM 35.6 °F - 28.4 °F 75% 30.29 in 10.0 mi Calm Calm - N/A   Overcast
10:15 PM 35.6 °F - 28.4 °F 75% 30.29 in 10.0 mi Calm Calm - N/A   Overcast
10:35 PM 35.6 °F - 28.4 °F 75% 30.29 in 10.0 mi Calm Calm - N/A   Overcast
10:55 PM 35.6 °F - 28.4 °F 75% 30.28 in 10.0 mi Calm Calm - N/A   Overcast
11:15 PM 35.6 °F - 28.4 °F 75% 30.28 in 10.0 mi Calm Calm - N/A   Overcast
11:35 PM 35.6 °F - 28.4 °F 75% 30.26 in 10.0 mi Calm Calm - N/A   Overcast
11:55 PM 35.6 °F - 30.2 °F 81% 30.26 in 10.0 mi Calm Calm - N/A   Overcast